Location: Chervonnoye
(48.6000°N, 34.4000°E)
Time: 19:52:15
(UTC+00:00)

X-37B - Pass Details

Date: 03 October 2021
Orbit: 385 x 389 km, 45.0° (Epoch: 13 October)

Event Time Altitude Azimuth Distance (km) Brightness Sun altitude
Exits shadow 02:25:06 17° 209° (SSW) 1,061 2.4 -13.9°
Maximum altitude 02:25:14 17° 206° (SSW) 1,060 2.4 -13.9°
Drops below altitude 10° 02:27:25 10° 163° (SSE) 1,409 3.5 -13.6°
Sets 02:29:56 0° 142° (SE) 2,261 4.9 -13.2°
